THY79 LTFM-EBBR

Flight info

Callsign THY79
Flight time N/A
Altitude 38000
Route TUDBU1D/35L TUDBU Q26 ETUBA DCT NAVOD DCT GOVIN DCT MAVIR DCT GITAS DCT ARSIN DCT DEXIT DCT MOOCE DCT TEKTU DCT TESGA DCT UMUPU T880 BATTY
Aircraft A20N/M-SDE2E3FGHIRWXY/LB1

Departure

Time N/A
Airport İstanbul Airport (LTFM)

Arrival

Time 2026-05-07 18:02
Airport Brussels Airport (EBBR)
Time Latitude Longitude Altitude Speed Heading
2026-05-07 17:25 50.09597 9.92854 38032 ft 442 kts 292°
2026-05-07 17:25 50.10378 9.90382 38055 ft 446 kts 293°
2026-05-07 17:26 50.12993 9.82100 38049 ft 441 kts 293°
2026-05-07 17:26 50.15701 9.73497 38052 ft 442 kts 293°
2026-05-07 17:27 50.18401 9.64889 38050 ft 442 kts 293°
2026-05-07 17:27 50.21095 9.56268 38049 ft 442 kts 293°
2026-05-07 17:28 50.23787 9.47626 38052 ft 442 kts 293°
2026-05-07 17:28 50.26471 9.38979 38048 ft 442 kts 293°
2026-05-07 17:29 50.29117 9.30426 38053 ft 443 kts 293°
2026-05-07 17:29 50.31796 9.21734 37891 ft 443 kts 293°
2026-05-07 17:30 50.34237 9.13357 37902 ft 441 kts 288°
2026-05-07 17:30 50.36134 9.04242 37901 ft 440 kts 284°
2026-05-07 17:31 50.37958 8.95099 37906 ft 440 kts 285°
2026-05-07 17:31 50.39777 8.85947 37906 ft 440 kts 284°
2026-05-07 17:32 50.41580 8.76791 37916 ft 439 kts 284°
2026-05-07 17:32 50.43362 8.67688 37918 ft 439 kts 284°
2026-05-07 17:33 50.44845 8.58422 37920 ft 436 kts 277°
2026-05-07 17:33 50.45770 8.49044 37920 ft 436 kts 277°
2026-05-07 17:34 50.46712 8.39665 37945 ft 435 kts 277°
2026-05-07 17:34 50.47643 8.30269 37969 ft 435 kts 277°
2026-05-07 17:35 50.48563 8.20865 37986 ft 435 kts 277°
2026-05-07 17:35 50.49474 8.11472 37994 ft 435 kts 276°
2026-05-07 17:36 50.50377 8.02079 37998 ft 435 kts 276°
2026-05-07 17:36 50.51274 7.92664 37995 ft 435 kts 276°
2026-05-07 17:37 50.52153 7.83364 37365 ft 433 kts 276°
2026-05-07 17:37 50.52591 7.78684 36470 ft 436 kts 277°
2026-05-07 17:37 50.53034 7.73927 35390 ft 442 kts 277°
2026-05-07 17:38 50.53466 7.69269 34376 ft 447 kts 277°
2026-05-07 17:38 50.53921 7.64346 33280 ft 448 kts 277°
2026-05-07 17:38 50.54367 7.59496 32105 ft 449 kts 277°
2026-05-07 17:38 50.54815 7.54611 30909 ft 452 kts 277°
2026-05-07 17:39 50.55262 7.49712 29662 ft 454 kts 277°
2026-05-07 17:39 50.55693 7.44811 28339 ft 448 kts 275°
2026-05-07 17:39 50.55880 7.40027 27585 ft 427 kts 270°
2026-05-07 17:39 50.55898 7.35479 27218 ft 411 kts 270°
2026-05-07 17:40 50.55938 7.30921 27046 ft 418 kts 270°
2026-05-07 17:40 50.55980 7.26357 26973 ft 417 kts 270°
2026-05-07 17:40 50.56018 7.21799 26979 ft 417 kts 270°
2026-05-07 17:40 50.56052 7.17216 26976 ft 418 kts 270°
2026-05-07 17:41 50.56025 7.12662 26978 ft 417 kts 268°
2026-05-07 17:41 50.55918 7.08112 26978 ft 417 kts 267°
2026-05-07 17:41 50.55794 7.03546 26976 ft 417 kts 267°
2026-05-07 17:41 50.55673 6.98998 26976 ft 417 kts 267°
2026-05-07 17:42 50.55560 6.94442 26976 ft 417 kts 267°
2026-05-07 17:42 50.55450 6.89894 26980 ft 417 kts 267°
2026-05-07 17:42 50.55341 6.85344 26981 ft 417 kts 267°
2026-05-07 17:42 50.55231 6.80790 26987 ft 417 kts 267°
2026-05-07 17:43 50.55119 6.76237 26992 ft 416 kts 267°
2026-05-07 17:43 50.55026 6.71678 26991 ft 416 kts 270°
2026-05-07 17:43 50.55211 6.67139 26992 ft 417 kts 277°
2026-05-07 17:43 50.55710 6.62707 26999 ft 418 kts 280°
2026-05-07 17:44 50.56275 6.58160 27000 ft 417 kts 280°
2026-05-07 17:44 50.56821 6.53682 27005 ft 417 kts 280°
2026-05-07 17:44 50.57364 6.49187 26998 ft 417 kts 280°
2026-05-07 17:44 50.57900 6.44722 26807 ft 415 kts 280°
2026-05-07 17:45 50.58429 6.40303 26049 ft 417 kts 280°
2026-05-07 17:45 50.58967 6.35789 24850 ft 424 kts 280°
2026-05-07 17:45 50.59511 6.31218 23838 ft 425 kts 280°
2026-05-07 17:45 50.60049 6.26673 22916 ft 419 kts 280°
2026-05-07 17:46 50.60575 6.22231 22280 ft 402 kts 280°
2026-05-07 17:46 50.61074 6.18006 22057 ft 384 kts 280°
2026-05-07 17:46 50.61561 6.13859 21991 ft 388 kts 280°
2026-05-07 17:46 50.62044 6.09724 21995 ft 389 kts 280°
2026-05-07 17:47 50.62532 6.05544 22002 ft 388 kts 280°
2026-05-07 17:47 50.62939 6.02046 22001 ft 388 kts 280°
2026-05-07 17:47 50.63423 5.97867 22004 ft 388 kts 280°
2026-05-07 17:47 50.63908 5.93676 22006 ft 388 kts 279°
2026-05-07 17:48 50.64390 5.89496 22014 ft 388 kts 280°
2026-05-07 17:48 50.65038 5.85364 22025 ft 389 kts 287°
2026-05-07 17:48 50.66035 5.81404 22033 ft 389 kts 295°
2026-05-07 17:48 50.67265 5.77610 22039 ft 389 kts 296°
2026-05-07 17:49 50.68500 5.73804 21939 ft 387 kts 296°
2026-05-07 17:49 50.69684 5.70126 21335 ft 388 kts 296°
2026-05-07 17:49 50.70902 5.66330 20026 ft 390 kts 296°
2026-05-07 17:49 50.72127 5.62499 18717 ft 391 kts 296°
2026-05-07 17:50 50.73328 5.58745 18043 ft 372 kts 296°
2026-05-07 17:50 50.74474 5.55161 16972 ft 362 kts 296°
2026-05-07 17:50 50.75607 5.51605 15435 ft 370 kts 296°
2026-05-07 17:50 50.76759 5.47987 14648 ft 356 kts 296°
2026-05-07 17:51 50.77780 5.44777 13890 ft 345 kts 296°
2026-05-07 17:51 50.78852 5.41403 13036 ft 336 kts 296°
2026-05-07 17:51 50.79862 5.38219 12757 ft 312 kts 296°
2026-05-07 17:51 50.80803 5.35252 12400 ft 294 kts 296°
2026-05-07 17:52 50.81710 5.32385 11727 ft 290 kts 296°
2026-05-07 17:52 50.82607 5.29542 11034 ft 287 kts 296°
2026-05-07 17:52 50.83497 5.26721 10362 ft 285 kts 296°
2026-05-07 17:52 50.84365 5.23965 9683 ft 282 kts 296°
2026-05-07 17:53 50.85234 5.21205 8974 ft 279 kts 296°
2026-05-07 17:53 50.86093 5.18474 8287 ft 276 kts 296°
2026-05-07 17:53 50.86938 5.15784 7798 ft 266 kts 296°
2026-05-07 17:53 50.87745 5.13262 7623 ft 247 kts 300°
2026-05-07 17:54 50.88642 5.11017 7477 ft 230 kts 302°
2026-05-07 17:54 50.89466 5.08986 7333 ft 214 kts 302°
2026-05-07 17:54 50.90242 5.07064 7227 ft 201 kts 302°
2026-05-07 17:54 50.90963 5.05239 7063 ft 189 kts 296°
2026-05-07 17:55 50.91335 5.03314 6898 ft 178 kts 283°
2026-05-07 17:55 50.91631 5.01230 6816 ft 222 kts 282°
2026-05-07 17:55 50.91993 4.98671 6779 ft 248 kts 283°
2026-05-07 17:55 50.92718 4.96216 6740 ft 246 kts 310°
2026-05-07 17:56 50.94063 4.94670 6565 ft 237 kts 339°
2026-05-07 17:56 50.95633 4.93851 6179 ft 237 kts 342°
2026-05-07 17:56 50.97134 4.92851 5716 ft 235 kts 323°
2026-05-07 17:56 50.98048 4.90782 5280 ft 235 kts 284°
2026-05-07 17:57 50.98053 4.88174 4968 ft 238 kts 259°
2026-05-07 17:57 50.97779 4.86496 4754 ft 236 kts 252°
2026-05-07 17:57 50.97023 4.83217 4315 ft 237 kts 249°
2026-05-07 17:57 50.96462 4.80779 3976 ft 232 kts 250°
2026-05-07 17:58 50.95916 4.78414 3672 ft 224 kts 250°
2026-05-07 17:58 50.95394 4.76149 3372 ft 214 kts 250°
2026-05-07 17:58 50.94892 4.73974 3094 ft 206 kts 250°
2026-05-07 17:58 50.94406 4.71865 2823 ft 200 kts 250°
2026-05-07 17:59 50.93934 4.69818 2534 ft 195 kts 250°
2026-05-07 17:59 50.93471 4.67811 2268 ft 192 kts 250°
2026-05-07 17:59 50.93031 4.65904 2043 ft 178 kts 250°
2026-05-07 17:59 50.92632 4.64178 1800 ft 160 kts 250°
2026-05-07 18:00 50.92273 4.62619 1596 ft 144 kts 250°
2026-05-07 18:00 50.91943 4.61190 1408 ft 140 kts 250°
2026-05-07 18:00 50.91617 4.59778 1213 ft 133 kts 250°
2026-05-07 18:00 50.91304 4.58424 1032 ft 132 kts 250°
2026-05-07 18:01 50.90982 4.57039 804 ft 131 kts 251°
2026-05-07 18:01 50.90668 4.55674 641 ft 132 kts 251°
2026-05-07 18:01 50.90354 4.54311 461 ft 132 kts 251°
2026-05-07 18:01 50.90039 4.52951 289 ft 131 kts 251°
2026-05-07 18:02 50.89538 4.50778 162 ft 37 kts 249°
2026-05-07 18:02 50.89490 4.50458 165 ft 32 kts 271°
2026-05-07 18:02 50.89509 4.50167 172 ft 0 kts 280°
2026-05-07 18:03 50.89509 4.50166 172 ft 1 kts 280°
2026-05-07 18:03 50.89523 4.50051 171 ft 22 kts 278°
2026-05-07 18:03 50.89517 4.49865 170 ft 11 kts 243°
2026-05-07 18:03 50.89487 4.49711 171 ft 18 kts 251°
2026-05-07 18:04 50.89434 4.49488 168 ft 23 kts 249°
2026-05-07 18:04 50.89381 4.49257 164 ft 23 kts 251°
2026-05-07 18:04 50.89371 4.49206 163 ft 0 kts 253°
2026-05-07 18:05 50.89367 4.49167 163 ft 9 kts 272°
2026-05-07 18:05 50.89416 4.49127 163 ft 11 kts 357°
2026-05-07 18:05 50.89465 4.49147 164 ft 1 kts 25°
2026-05-07 18:05 50.89486 4.49157 164 ft 0 kts 15°
2026-05-07 18:06 50.89488 4.49158 164 ft 3 kts 15°
2026-05-07 18:06 50.89569 4.49193 164 ft 19 kts 17°
2026-05-07 18:06 50.89678 4.49277 162 ft 19 kts 15°
2026-05-07 18:07 50.89829 4.49336 159 ft 26 kts 13°
2026-05-07 18:07 50.90024 4.49415 152 ft 32 kts 15°
2026-05-07 18:07 50.90218 4.49494 142 ft 14 kts 14°
2026-05-07 18:07 50.90309 4.49533 138 ft 17 kts 16°
2026-05-07 18:08 50.90366 4.49491 136 ft 9 kts 280°
2026-05-07 18:08 50.90344 4.49377 137 ft 14 kts 247°
2026-05-07 18:08 50.90296 4.49211 138 ft 19 kts 245°
2026-05-07 18:08 50.90236 4.49006 141 ft 21 kts 246°
2026-05-07 18:09 50.90194 4.48859 141 ft 24 kts 244°
2026-05-07 18:09 50.90099 4.48528 139 ft 15 kts 245°
2026-05-07 18:09 50.90083 4.48474 139 ft 7 kts 244°
2026-05-07 18:09 50.90044 4.48458 141 ft 5 kts 161°
2026-05-07 18:10 50.90032 4.48466 142 ft 1 kts 157°
2026-05-07 18:10 50.90020 4.48475 142 ft 2 kts 155°
2026-05-07 18:10 50.90014 4.48480 143 ft 0 kts 155°